Location: Pilipovskiye Korichintsy
(49.1833°N, 27.4667°E)
Time: 22:23:52
(UTC+00:00)

Cosmos 1666 - Pass Details

Date: 14 July 2020
Orbit: 497 x 521 km, 82.5° (Epoch: 10 August)

Event Time Altitude Azimuth Distance (km) Brightness Sun altitude
Exits shadow 01:13:16 12° 224° (SW) 1,582 4.5 -9.0°
Maximum altitude 01:16:19 33° 287° (WNW) 878 3.6 -8.6°
Drops below altitude 10° 01:19:45 10° 352° (N) 1,724 6.0 -8.3°
Sets 01:22:02 0° 3° (N) 2,610 7.1 -8.0°
